Starlink 11747

operational
NORAD ID: 64322 Int'l Des: 2025-124 Owner: SPXS Country: US Constellation: starlink
LEOCIRCULAR

Über Starlink 11747

Beschreibung wird geladen...

Live-Position

3D-Globus wird geladen...

Nächste Überflüge

Höhenverlauf

Altitude vs Time

uPlot chart will show altitude changes over time

Zweizeiliger Elementsatz

1 64322U 25124F 25308.04961685 .00321520 00000-0 24051-2 0 9995
2 64322 42.9988 66.6064 0000653 346.5661 13.5190 15.70921913 23071
Epoch: 4. Nov. 2025 • Age: 16 hours

Aktueller Status

Höhe 357.5 km
Geschwindigkeit 7.70 km/s
Subsatellitenpunkt 38.70°N, 114.17°W
Startdatum 10. Juni 2025
Alter 0.4 years
Typ internet

Technische Details

Klassifizierung Payload
Masse 960.00 kg
Trockenmasse 910.00 kg
Gesamtmasse 960.00 kg
Länge 0.30 m
Durchmesser 4.10 m
Spannweite 29.00 m
Form Box + pan
Hersteller SPXS
Bus-Typ Starlink V2MD
Phasenstatus In Orbit
Besitzer/Staat SPXS/US

Große Konstellationen

Loading constellations...